SCP
0 0 -0 -0 -0 0 0 0 0 0 0 0 0 0 0 0 0 0 0 0 0 0 0 0 0 0 0 0 0 0 0 0 0 0 0 0 0 0 0 0 0 0 0
0 0 0 0 0 0 0 0 0 0 0 0 0 0 0 0 0 0 0 0 0 0 0 0 0 0 0 0 0 0 0 0 0 0 0 0 0 0 0 0 0 0 -0
0 0 0 0 0 0 0 0 0 0 0 0 0 0 0 0 0 0 0 0 0 0 0 0 0 0 0 0 0 0 0 0 0 0 0 0 0 0 0 0 0 0 0
0 0 0 0 0 0 0 0 0 0 0 0 0 0 0 0 0 0 0 0 0 0 0 0 0 0 0 0 1 0 0 0 0 0 0 0 0 0 0 0 0 0 0
0 0 0 0 0 0 0 0 0 0 0 0 0 0 0 0 0 0 0 0 0 0 0 0 0 0 0 0 0 1 0 0 0 0 0 0 0 0 0 0 0 0 0
0 0 0 0 0 0 0 0 0 0 0 0 0 0 0 0 0 0 0 0 0 0 0 0 0 0 0 0 0 0 1 0 0 0 0 0 0 0 0 0 0 0 0
0 0 0 0 0 0 0 0 0 0 0 0 0 0 0 0 0 0 0 0 0 0 0 0 0 0 0 0 0 0 0 0 0 0 0 0 0 0 0 0 0 0 0
0 0 0 0 0 0 0 0 0 0 0 0 0 0 0 0 0 0 0 0 0 0 0 0 0 0 0 0 0 0 0 0 0 0 0 0 0 0 0 0 0 0 0
0 0 0 0 0 0 0 0 0 0 0 0 0 0 0 0 0 0 0 0 0 0 0 0 0 0 0 0 0 0 0 0 0 0 0 0 0 0 0 0 0 0 0
0 0 0 0 0 0 0 0 0 0 0 0 0 0 0 0 0 0 0 0 0 0 0 0 0 0 0 0 0 0 0 0 0 0 0 0 0 0 0 0 0 0 0
0 0 0 0 0 0 0 0 0 0 0 0 0 0 0 0 0 0 0 0 0 0 0 0 0 0 0 0 0 0 0 0 0 0 0 0 0 0 0 0 0 0 0
0 0 0 0 0 0 0 0 0 0 0 0 0 0 0 0 0 0 0 0 0 0 0 0 0 0 0 0 0 0 0 0 0 0 0 0 0 0 0 0 0 -0 0
0 0 0 0 0 0 0 0 0 0 0 0 0 0 0 0 0 0 0 0 0 0 0 0 0 0 0 0 0 0 0 0 0 0 0 0 0 0 0 0 0 0 0
0 0 0 0 0 0 0 0 0 0 0 0 0 0 0 0 0 0 0 0 0 0 0 0 0 0 0 0 0 0 0 0 0 0 0 0 0 0 0 -0 -0 -0 -0
0 0 0 0 0 0 0 0 0 0 0 0 0 0 0 0 0 0 0 0 0 0 0 0 0 0 0 0 0 0 0 0 0 0 0 0 0 0 0 -0 -0 -0 -0
0 0 0 0 0 0 0 0 0 0 0 0 0 0 0 0 0 0 0 0 0 0 0 0 0 0 0 0 0 0 0 0 0 0 0 0 0 0 0 -0 -0 0 0
0 0 0 0 0 0 0 0 0 0 0 0 0 0 0 0 0 0 0 0 0 0 0 0 0 0 0 0 0 0 0 0 0 0 0 0 0 0 0 0 0 0 -0
0 0 0 0 0 0 0 0 0 0 0 0 0 0 0 0 0 0 0 0 0 0 0 0 0 0 0 0 0 0 0 0 0 0 0 0 0 0 0 0 0 -0 -0
0 0 0 0 0 0 0 0 0 0 0 0 0 0 0 0 0 0 0 0 0 0 0 0 0 0 0 0 0 0 0 0 0 0 0 0 0 0 0 0 0 0 -0
0 0 0 0 0 0 0 0 0 0 0 0 0 0 0 0 0 0 0 0 0 0 0 0 0 0 -0 0 0 0 0 0 0 0 0 0 0 0 0 0 0 0 0
0 0 0 0 0 0 0 0 0 0 0 0 0 0 0 0 0 0 0 0 0 0 0 0 0 0 -0 0 0 0 0 0 0 0 0 0 0 0 0 0 0 0 0
0 0 0 0 0 0 0 0 0 0 0 0 0 0 0 0 0 0 0 0 0 0 0 0 0 0 -0 0 0 0 0 0 0 0 0 0 0 0 0 0 0 0 0
0 0 0 0 0 0 0 0 0 0 0 0 0 0 0 0 0 0 0 0 0 0 0 0 0 0 0 0 0 0 0 0 0 0 0 0 0 0 0 0 0 0 0
0 0 0 0 0 0 0 0 0 0 0 0 0 0 0 0 0 0 0 0 0 0 0 0 0 0 0 0 0 0 0 0 0 0 0 0 0 0 0 0 0 0 0
0 0 0 0 0 0 0 0 0 0 0 0 0 0 0 0 0 0 0 0 0 0 0 0 0 0 0 0 0 0 0 0 0 0 0 0 0 0 0 0 0 0 0
0 0 0 0 0 0 0 0 0 0 0 0 0 0 0 0 0 0 0 0 0 0 0 0 -0 0 0 0 0 0 0 0 0 0 0 0 0 0 0 0 0 0 0
Wind_Speed_500mb
15 12 27 24 16 11 9 6 7 8 11 13 15 15 16 17 18 19 14 13 9 9 13 13 14 13 13 13 15 21 23 22 20 21 21 21 17 12 26 20 11 10 4
17 14 28 25 17 12 8 7 9 11 13 15 16 18 18 20 21 22 21 20 17 13 7 11 15 18 17 16 18 20 26 23 21 20 19 20 18 25 28 21 17 10 4
15 15 26 21 15 10 8 9 12 15 15 13 12 11 13 14 15 17 20 23 26 27 23 14 10 13 18 18 19 21 24 24 22 20 17 17 24 31 26 15 18 11 7
14 12 20 17 13 9 10 13 14 13 12 11 10 10 11 12 13 15 17 19 21 25 29 30 23 15 13 20 21 24 26 25 24 23 18 17 23 35 27 21 17 9 9
15 12 17 15 11 9 13 15 13 11 11 11 11 11 11 10 11 12 14 17 19 21 24 29 33 33 27 17 22 23 29 28 26 25 20 18 24 36 33 23 19 12 14
14 12 13 13 10 11 14 14 12 11 11 11 11 12 13 14 15 16 17 19 21 23 24 27 30 35 40 34 26 25 26 29 29 28 24 20 26 38 34 26 22 13 18
14 12 14 12 11 13 13 13 11 11 12 12 13 14 16 19 20 22 22 23 24 26 28 30 32 34 36 39 38 32 29 30 32 31 29 26 27 37 31 25 21 16 20
16 15 15 14 13 13 13 11 12 12 12 13 15 17 20 23 26 28 29 29 28 28 30 31 34 36 36 36 37 39 34 32 34 34 33 31 29 33 34 29 26 18 22
18 16 16 14 12 12 12 12 12 12 13 15 17 20 23 27 29 31 31 33 33 32 32 32 33 35 38 37 36 37 38 35 34 38 38 37 34 32 37 36 28 18 22
22 17 16 13 11 11 11 12 12 13 15 18 21 23 26 30 34 36 36 36 35 36 35 34 31 31 34 38 36 37 41 40 37 39 42 42 38 35 35 40 31 21 25
27 23 18 15 13 10 10 11 14 15 18 22 25 27 30 34 34 34 34 35 33 31 29 29 27 26 27 30 33 33 39 44 41 41 42 45 41 38 36 40 35 23 33
28 25 21 17 14 13 12 12 14 16 19 23 29 30 32 36 39 42 42 40 38 34 30 24 25 21 18 21 24 25 33 44 43 42 39 44 39 38 33 45 35 34 38
26 26 23 20 16 12 16 14 17 19 21 25 30 35 39 40 39 38 35 34 33 30 27 21 16 17 18 17 17 21 18 34 40 38 37 43 40 38 33 45 39 38 39
30 26 25 22 17 14 16 15 18 19 23 27 31 37 42 42 37 34 33 30 27 23 21 18 14 12 18 16 20 25 23 23 38 41 36 37 42 38 36 50 38 44 44
29 27 25 22 18 16 15 15 17 19 22 26 31 37 39 35 33 30 30 29 23 22 22 24 18 16 17 13 21 27 22 25 28 35 41 33 36 39 37 34 45 48 47
30 31 26 22 21 18 14 17 17 17 22 26 32 33 29 28 25 26 29 24 20 25 26 19 17 10 12 7 16 24 28 33 34 30 34 34 38 38 35 41 48 52 46
36 35 29 24 23 17 16 17 15 17 22 27 29 24 25 23 26 25 21 20 24 25 23 23 19 10 4 9 18 16 21 31 39 30 30 35 38 36 45 51 50 46 36
38 36 33 26 22 18 19 15 14 17 22 26 19 21 18 22 20 19 17 22 27 28 26 19 15 8 9 10 10 12 16 24 30 34 33 37 40 47 45 42 49 42 47
36 34 30 25 24 19 16 12 14 16 21 19 17 18 17 17 17 17 23 24 26 31 18 17 14 12 10 11 7 7 11 20 24 32 35 41 54 50 52 52 47 42 46
34 31 27 27 23 17 12 12 14 16 15 12 15 12 11 13 21 23 21 22 26 18 23 25 22 12 8 6 2 12 13 21 27 31 36 47 60 63 57 51 40 41 43
32 29 27 26 19 15 13 10 14 15 10 9 10 6 10 15 19 17 18 26 26 20 23 24 17 16 15 12 7 24 25 33 37 34 36 54 54 60 55 44 42 27 33
31 26 26 23 18 13 10 9 13 12 8 7 6 4 12 16 14 14 19 21 22 20 19 17 13 7 18 18 19 16 22 45 51 51 50 49 48 48 40 41 42 35 33
29 25 24 21 16 11 8 9 11 7 4 3 3 6 9 13 12 13 19 19 21 23 22 17 13 10 12 14 27 15 14 18 57 46 45 53 55 46 39 33 31 31 40
26 24 24 19 13 10 7 8 7 6 2 3 4 5 6 9 10 12 18 19 22 24 21 13 12 10 14 21 22 20 23 36 34 34 43 65 50 47 46 44 42 48 44
27 25 22 17 12 10 8 8 5 6 4 3 2 3 7 8 7 9 16 18 21 21 16 10 9 12 18 16 15 15 41 50 51 67 60 74 55 61 48 47 44 45 39
29 26 22 16 12 9 8 6 5 6 6 5 1 3 5 4 3 7 13 16 20 21 15 9 15 17 17 8 22 35 48 54 59 59 72 72 71 68 55 48 43 40 39
Wind_Direction_500mb
216 229 197 197 201 200 205 220 244 260 268 273 275 275 275 273 270 269 258 257 263 285 272 267 264 256 244 239 225 225 218 225 234 227 233 238 235 217 167 177 137 122 93
251 218 200 196 196 199 212 248 265 273 279 279 277 276 275 273 272 270 263 254 250 245 270 283 274 255 254 238 232 220 225 222 222 224 234 232 213 183 177 171 140 124 159
237 224 203 196 200 211 239 270 288 292 287 283 283 281 279 279 279 277 273 264 257 251 249 251 284 274 251 248 233 228 225 225 228 223 228 215 202 189 178 199 147 136 149
236 221 196 193 205 232 276 292 291 290 293 299 293 292 291 293 292 292 289 284 277 268 256 251 247 258 270 249 237 229 226 228 230 228 224 215 202 190 196 183 160 157 162
232 204 190 198 214 260 290 293 297 297 302 300 307 312 318 318 314 305 296 289 282 271 264 256 248 246 247 258 246 233 230 228 226 226 228 224 209 195 188 180 172 171 153
230 193 196 204 237 275 290 297 295 303 302 309 318 322 324 323 318 311 305 297 290 285 276 266 257 250 243 240 245 241 234 226 219 221 225 221 214 194 184 188 175 175 155
230 221 209 224 254 279 288 285 298 306 312 322 321 323 322 320 318 315 310 306 300 292 284 277 269 261 254 249 238 237 235 230 220 215 221 214 202 202 195 194 185 170 158
232 226 223 238 262 279 281 292 306 305 310 312 312 314 317 319 321 321 318 316 309 299 289 282 275 269 261 254 254 230 230 228 223 215 213 212 215 213 199 195 178 168 171
236 231 228 246 262 273 285 300 300 304 306 305 310 320 323 323 325 321 318 315 311 306 298 288 279 273 268 260 250 232 228 228 224 217 206 210 219 221 205 185 179 178 174
248 239 240 248 261 276 295 301 304 307 307 311 324 328 329 330 328 327 324 318 312 306 300 294 285 276 270 265 256 243 230 226 225 221 210 211 215 218 212 191 191 184 172
237 248 244 248 261 269 290 302 303 307 313 324 325 335 338 333 327 322 320 316 313 306 298 289 282 272 264 261 260 246 232 225 222 226 217 213 216 219 215 196 194 185 166
234 236 250 259 272 292 296 303 306 310 322 327 332 336 333 327 326 324 321 317 316 318 318 304 288 276 262 250 245 242 234 223 219 223 217 215 213 217 215 195 188 172 169
241 237 240 244 254 265 286 296 307 319 326 327 331 330 332 329 323 321 322 322 321 320 320 318 302 283 273 255 234 208 206 216 215 220 218 214 211 214 210 189 172 172 175
234 233 237 234 241 253 270 293 305 316 318 327 327 328 328 331 335 334 333 333 335 344 338 320 304 273 272 293 234 197 191 210 212 219 220 216 213 208 196 180 179 170 170
234 237 234 235 234 245 267 284 295 305 317 321 326 327 332 336 338 340 343 347 348 342 331 325 318 282 283 300 209 210 201 221 213 210 217 215 211 205 188 186 178 171 171
234 241 238 229 232 241 261 279 291 310 313 324 326 330 336 341 347 353 354 4 4 351 340 334 335 315 265 294 209 213 210 218 215 222 212 206 200 196 195 187 179 177 179
230 237 237 229 230 241 262 273 297 307 316 324 328 332 341 348 357 357 0 19 9 355 335 327 326 310 324 305 204 226 220 224 219 219 192 196 188 192 171 175 177 181 184
224 227 228 222 226 235 258 272 296 311 320 324 329 340 340 360 9 4 22 28 10 351 330 340 348 323 313 297 245 229 220 205 203 198 181 186 179 173 176 180 180 186 177
222 221 220 220 220 235 252 274 297 313 322 324 339 340 354 11 22 14 42 24 3 345 2 17 5 346 322 316 256 195 198 177 186 182 177 177 168 169 165 170 180 190 186
212 213 215 216 215 229 239 269 289 314 324 331 348 341 11 28 36 49 40 14 357 17 32 23 9 33 357 80 109 159 168 172 170 165 179 178 174 164 170 172 184 185 207
206 206 209 208 210 216 239 270 296 320 326 354 352 342 40 55 46 46 29 25 22 37 29 32 22 24 89 124 171 163 151 149 160 168 173 157 163 166 172 179 186 173 161
203 203 200 198 201 211 243 283 309 317 317 343 337 12 42 47 48 44 25 27 33 31 37 43 35 4 143 143 122 120 113 126 141 152 159 163 161 157 167 169 154 173 160
201 194 193 196 197 217 245 294 306 291 288 313 313 21 37 48 50 42 28 29 20 19 19 35 72 114 98 168 154 155 167 125 105 149 149 139 153 151 142 139 139 138 146
195 190 193 193 198 225 252 295 301 268 275 299 348 17 43 54 45 42 33 26 34 27 17 32 94 97 129 152 167 150 162 174 127 99 117 143 144 131 133 134 136 137 136
195 195 196 197 205 227 263 295 299 264 260 270 303 84 72 63 71 47 36 35 33 33 39 75 101 128 122 147 152 149 138 144 113 122 117 112 133 132 135 140 143 137 128
195 200 202 204 213 228 263 289 274 239 243 216 221 102 74 75 109 70 45 48 36 37 49 83 131 126 134 99 153 143 143 142 171 140 125 123 123 119 135 133 130 125 126
Wind_Speed_850mb
15 12 27 24 16 11 9 6 7 8 11 13 15 15 16 17 18 19 14 13 9 9 13 13 14 13 13 13 15 21 23 22 20 21 21 21 17 12 26 20 11 10 4
17 14 28 25 17 12 8 7 9 11 13 15 16 18 18 20 21 22 21 20 17 13 7 11 15 18 17 16 18 20 26 23 21 20 19 20 18 25 28 21 17 10 4
15 15 26 21 15 10 8 9 12 15 15 13 12 11 13 14 15 17 20 23 26 27 23 14 10 13 18 18 19 21 24 24 22 20 17 17 24 31 26 15 18 11 7
14 12 20 17 13 9 10 13 14 13 12 11 10 10 11 12 13 15 17 19 21 25 29 30 23 15 13 20 21 24 26 25 24 23 18 17 23 35 27 21 17 9 9
15 12 17 15 11 9 13 15 13 11 11 11 11 11 11 10 11 12 14 17 19 21 24 29 33 33 27 17 22 23 29 28 26 25 20 18 24 36 33 23 19 12 14
14 12 13 13 10 11 14 14 12 11 11 11 11 12 13 14 15 16 17 19 21 23 24 27 30 35 40 34 26 25 26 29 29 28 24 20 26 38 34 26 22 13 18
14 12 14 12 11 13 13 13 11 11 12 12 13 14 16 19 20 22 22 23 24 26 28 30 32 34 36 39 38 32 29 30 32 31 29 26 27 37 31 25 21 16 20
16 15 15 14 13 13 13 11 12 12 12 13 15 17 20 23 26 28 29 29 28 28 30 31 34 36 36 36 37 39 34 32 34 34 33 31 29 33 34 29 26 18 22
18 16 16 14 12 12 12 12 12 12 13 15 17 20 23 27 29 31 31 33 33 32 32 32 33 35 38 37 36 37 38 35 34 38 38 37 34 32 37 36 28 18 22
22 17 16 13 11 11 11 12 12 13 15 18 21 23 26 30 34 36 36 36 35 36 35 34 31 31 34 38 36 37 41 40 37 39 42 42 38 35 35 40 31 21 25
27 23 18 15 13 10 10 11 14 15 18 22 25 27 30 34 34 34 34 35 33 31 29 29 27 26 27 30 33 33 39 44 41 41 42 45 41 38 36 40 35 23 33
28 25 21 17 14 13 12 12 14 16 19 23 29 30 32 36 39 42 42 40 38 34 30 24 25 21 18 21 24 25 33 44 43 42 39 44 39 38 33 45 35 34 38
26 26 23 20 16 12 16 14 17 19 21 25 30 35 39 40 39 38 35 34 33 30 27 21 16 17 18 17 17 21 18 34 40 38 37 43 40 38 33 45 39 38 39
30 26 25 22 17 14 16 15 18 19 23 27 31 37 42 42 37 34 33 30 27 23 21 18 14 12 18 16 20 25 23 23 38 41 36 37 42 38 36 50 38 44 44
29 27 25 22 18 16 15 15 17 19 22 26 31 37 39 35 33 30 30 29 23 22 22 24 18 16 17 13 21 27 22 25 28 35 41 33 36 39 37 34 45 48 47
30 31 26 22 21 18 14 17 17 17 22 26 32 33 29 28 25 26 29 24 20 25 26 19 17 10 12 7 16 24 28 33 34 30 34 34 38 38 35 41 48 52 46
36 35 29 24 23 17 16 17 15 17 22 27 29 24 25 23 26 25 21 20 24 25 23 23 19 10 4 9 18 16 21 31 39 30 30 35 38 36 45 51 50 46 36
38 36 33 26 22 18 19 15 14 17 22 26 19 21 18 22 20 19 17 22 27 28 26 19 15 8 9 10 10 12 16 24 30 34 33 37 40 47 45 42 49 42 47
36 34 30 25 24 19 16 12 14 16 21 19 17 18 17 17 17 17 23 24 26 31 18 17 14 12 10 11 7 7 11 20 24 32 35 41 54 50 52 52 47 42 46
34 31 27 27 23 17 12 12 14 16 15 12 15 12 11 13 21 23 21 22 26 18 23 25 22 12 8 6 2 12 13 21 27 31 36 47 60 63 57 51 40 41 43
32 29 27 26 19 15 13 10 14 15 10 9 10 6 10 15 19 17 18 26 26 20 23 24 17 16 15 12 7 24 25 33 37 34 36 54 54 60 55 44 42 27 33
31 26 26 23 18 13 10 9 13 12 8 7 6 4 12 16 14 14 19 21 22 20 19 17 13 7 18 18 19 16 22 45 51 51 50 49 48 48 40 41 42 35 33
29 25 24 21 16 11 8 9 11 7 4 3 3 6 9 13 12 13 19 19 21 23 22 17 13 10 12 14 27 15 14 18 57 46 45 53 55 46 39 33 31 31 40
26 24 24 19 13 10 7 8 7 6 2 3 4 5 6 9 10 12 18 19 22 24 21 13 12 10 14 21 22 20 23 36 34 34 43 65 50 47 46 44 42 48 44
27 25 22 17 12 10 8 8 5 6 4 3 2 3 7 8 7 9 16 18 21 21 16 10 9 12 18 16 15 15 41 50 51 67 60 74 55 61 48 47 44 45 39
29 26 22 16 12 9 8 6 5 6 6 5 1 3 5 4 3 7 13 16 20 21 15 9 15 17 17 8 22 35 48 54 59 59 72 72 71 68 55 48 43 40 39
Wind_Direction_850mb
216 229 197 197 201 200 205 220 244 260 268 273 275 275 275 273 270 269 258 257 263 285 272 267 264 256 244 239 225 225 218 225 234 227 233 238 235 217 167 177 137 122 93
251 218 200 196 196 199 212 248 265 273 279 279 277 276 275 273 272 270 263 254 250 245 270 283 274 255 254 238 232 220 225 222 222 224 234 232 213 183 177 171 140 124 159
237 224 203 196 200 211 239 270 288 292 287 283 283 281 279 279 279 277 273 264 257 251 249 251 284 274 251 248 233 228 225 225 228 223 228 215 202 189 178 199 147 136 149
236 221 196 193 205 232 276 292 291 290 293 299 293 292 291 293 292 292 289 284 277 268 256 251 247 258 270 249 237 229 226 228 230 228 224 215 202 190 196 183 160 157 162
232 204 190 198 214 260 290 293 297 297 302 300 307 312 318 318 314 305 296 289 282 271 264 256 248 246 247 258 246 233 230 228 226 226 228 224 209 195 188 180 172 171 153
230 193 196 204 237 275 290 297 295 303 302 309 318 322 324 323 318 311 305 297 290 285 276 266 257 250 243 240 245 241 234 226 219 221 225 221 214 194 184 188 175 175 155
230 221 209 224 254 279 288 285 298 306 312 322 321 323 322 320 318 315 310 306 300 292 284 277 269 261 254 249 238 237 235 230 220 215 221 214 202 202 195 194 185 170 158
232 226 223 238 262 279 281 292 306 305 310 312 312 314 317 319 321 321 318 316 309 299 289 282 275 269 261 254 254 230 230 228 223 215 213 212 215 213 199 195 178 168 171
236 231 228 246 262 273 285 300 300 304 306 305 310 320 323 323 325 321 318 315 311 306 298 288 279 273 268 260 250 232 228 228 224 217 206 210 219 221 205 185 179 178 174
248 239 240 248 261 276 295 301 304 307 307 311 324 328 329 330 328 327 324 318 312 306 300 294 285 276 270 265 256 243 230 226 225 221 210 211 215 218 212 191 191 184 172
237 248 244 248 261 269 290 302 303 307 313 324 325 335 338 333 327 322 320 316 313 306 298 289 282 272 264 261 260 246 232 225 222 226 217 213 216 219 215 196 194 185 166
234 236 250 259 272 292 296 303 306 310 322 327 332 336 333 327 326 324 321 317 316 318 318 304 288 276 262 250 245 242 234 223 219 223 217 215 213 217 215 195 188 172 169
241 237 240 244 254 265 286 296 307 319 326 327 331 330 332 329 323 321 322 322 321 320 320 318 302 283 273 255 234 208 206 216 215 220 218 214 211 214 210 189 172 172 175
234 233 237 234 241 253 270 293 305 316 318 327 327 328 328 331 335 334 333 333 335 344 338 320 304 273 272 293 234 197 191 210 212 219 220 216 213 208 196 180 179 170 170
234 237 234 235 234 245 267 284 295 305 317 321 326 327 332 336 338 340 343 347 348 342 331 325 318 282 283 300 209 210 201 221 213 210 217 215 211 205 188 186 178 171 171
234 241 238 229 232 241 261 279 291 310 313 324 326 330 336 341 347 353 354 4 4 351 340 334 335 315 265 294 209 213 210 218 215 222 212 206 200 196 195 187 179 177 179
230 237 237 229 230 241 262 273 297 307 316 324 328 332 341 348 357 357 0 19 9 355 335 327 326 310 324 305 204 226 220 224 219 219 192 196 188 192 171 175 177 181 184
224 227 228 222 226 235 258 272 296 311 320 324 329 340 340 360 9 4 22 28 10 351 330 340 348 323 313 297 245 229 220 205 203 198 181 186 179 173 176 180 180 186 177
222 221 220 220 220 235 252 274 297 313 322 324 339 340 354 11 22 14 42 24 3 345 2 17 5 346 322 316 256 195 198 177 186 182 177 177 168 169 165 170 180 190 186
212 213 215 216 215 229 239 269 289 314 324 331 348 341 11 28 36 49 40 14 357 17 32 23 9 33 357 80 109 159 168 172 170 165 179 178 174 164 170 172 184 185 207
206 206 209 208 210 216 239 270 296 320 326 354 352 342 40 55 46 46 29 25 22 37 29 32 22 24 89 124 171 163 151 149 160 168 173 157 163 166 172 179 186 173 161
203 203 200 198 201 211 243 283 309 317 317 343 337 12 42 47 48 44 25 27 33 31 37 43 35 4 143 143 122 120 113 126 141 152 159 163 161 157 167 169 154 173 160
201 194 193 196 197 217 245 294 306 291 288 313 313 21 37 48 50 42 28 29 20 19 19 35 72 114 98 168 154 155 167 125 105 149 149 139 153 151 142 139 139 138 146
195 190 193 193 198 225 252 295 301 268 275 299 348 17 43 54 45 42 33 26 34 27 17 32 94 97 129 152 167 150 162 174 127 99 117 143 144 131 133 134 136 137 136
195 195 196 197 205 227 263 295 299 264 260 270 303 84 72 63 71 47 36 35 33 33 39 75 101 128 122 147 152 149 138 144 113 122 117 112 133 132 135 140 143 137 128
195 200 202 204 213 228 263 289 274 239 243 216 221 102 74 75 109 70 45 48 36 37 49 83 131 126 134 99 153 143 143 142 171 140 125 123 123 119 135 133 130 125 126